Regional Weather Roundup
Issued by NWS Midland/Odessa, TX

Skip options and go directly to product.
Home | Oldest Version | Previous Version | Current Version | All | Graphics & Text | Save Text | Print | Product List | Glossary On

Skip product version selection by date and time.   
229
ASUS44 KMAF 251410
RWRMAF
MIDLAND AREA WEATHER ROUNDUP
NATIONAL WEATHER SERVICE MIDLAND TX
900 AM CDT SUN SEP 25 2016

...IN SOUTHWEST TEXAS AND SOUTHEAST NEW MEXICO...

CITY           SKY/WX    TMP DP  RH WIND       PRES   REMARKS
ALPINE         CLOUDY    59  57  95 SW6       30.18F
ANDREWS        FAIR      65  65 100 E7        30.11R
ARTESIA        CLOUDY    63  39  42 N18       30.16R
BIG SPRING     CLOUDY    66  64  93 N8        30.09R
CARLSBAD       CLOUDY    63  41  44 NW14      30.13R
DRYDEN           N/A     67  67 100 NE8       30.01R
FORT STOCKTON  CLOUDY    66  64  93 SE8       30.07R
GUAD PASS      CLOUDY    58  36  43 E33       30.16F
HOBBS          PTSUNNY   64  64 100 CALM      30.14R
MARFA          LGT RAIN N/A N/A N/A N8        30.17R
MIDLAND AIRPK  CLOUDY    68  63  84 N5        30.08R
MIDLAND INTL   CLOUDY    67  62  84 NE5       30.07R
ODESSA         CLOUDY    67  62  84 N3        30.10R
PECOS          CLOUDY    68  62  82 NE7       30.07R
PRESIDIO       RAIN      64  62  96 CALM      30.08R
SEMINOLE       CLOUDY    65  63  94 CALM      30.13R
SNYDER           N/A     66  65  97 CALM      30.07S
WINK           PTSUNNY   68  61  78 NE7       30.07R
$$
...OTHER STATIONS IN TEXAS...

CITY           SKY/WX    TMP DP  RH WIND       PRES   REMARKS
ABILENE        LGT RAIN  66  65  96 SE7       30.06F
AMARILLO       CLOUDY    55  47  74 N20G32    30.26R
AUSTIN         CLOUDY    76  74  93 CALM      29.98R
BROWNSVILLE    MOSUNNY   86  76  71 S9        29.92R
CORPUS CHRISTI CLOUDY    79  75  87 E3        29.93S
DALLAS FTW     LGT RAIN  74  70  87 N6        30.01R
DEL RIO        RAIN      69  69 100 N9        29.95S VSB 1
EL PASO        CLOUDY    66  31  27 N14       30.11R
HOUSTON INT    CLOUDY    78  76  93 E5        30.00R
LUBBOCK        PTSUNNY   66  64  93 SE3       30.13R FOG
SAN ANGELO     CLOUDY    68  66  93 E8        30.05S
SAN ANTONIO    CLOUDY    77  74  90 E9        29.98S
WACO           CLOUDY    76  75  97 SE8       30.00R
WICHITA FALLS  NOT AVBL
$$
...OTHER LOCATIONS IN NEW MEXICO...

CITY           SKY/WX    TMP DP  RH WIND       PRES   REMARKS
ALAMAGORDO     CLOUDY    57  32  38 SW5       30.14R
ALBUQUERQUE    MOSUNNY   52  34  50 NW6       30.31R
CANNON AFB     CLOUDY    57  42  57 NE24G32   30.23R
CLOVIS         CLOUDY    57  43  58 N23       30.24R
HOLLOMAN AFB   CLOUDY    61  33  35 VRB1      30.12R
ROSWELL        CLOUDY    61  37  41 N18       30.17R
RUIDOSO        CLOUDY    50  32  50 NW8       30.33R
SANTA FE       SUNNY     49  30  48 N14G22    30.36R
TRUTH OR CONSE MOSUNNY   56  31  38 N5        30.21R
TUCUMCARI      CLOUDY    59  37  44 NE22G30   30.31R
$$

USA.gov is the U.S. government's official web portal to all federal, state and local government web resources and services.